Погода в Кыре

Погода в Кыре : погода сейчас, прогноз погоды и архив. Всё, что Вы хотите узнать о погоде в Кыре!

Хотите узнать прогноз погоды в Кыре? Тогда Вам сюда: Погода в Кыре

Поиск расширенной информации на нашем сайте:

Другие новости

Новости СМИ2

Главная страница сайта

Новости сайта

03.07.2017

Напоминаем, что на нашем специализированном сайте Метеоцентр.Азия вы можете получить высокодетализированные автоматические прогнозы погоды по пунктам России, СНГ и мира в авиационном формате (включающие направление и скорость ветра, видимость, явления погоды, количество и форму облачности, нижнюю и верхнюю границу облачности).


Погода в Кыре - сегодня

Время (UTC), дата Ветер
(°,м/с) 
Видим.   Явления Облачность Т
(°С)
Тd
(°С)
f(%) Тe
(°С)
Pmin
(гПа)
dP
(гПа)
Po
(мм)
O2
(г/м3)
Тmin Tmax R s Состояние
почвы
03 18.08.17 350 (С) 20000 м    8/5 1000 м кучево-дожд., средняя 
[Cb cap|Ac trans]
+21.4 +16.5 74 +36  1009.5  -0.2  683  251           
06 18.08.17 200 (Ю) 20000 м    8/6 1000 м кучево-дожд., верхняя 
[Cb cap|Ci fib]
+23.8 +17.8 69 +41  1006.9  -1.5  682  248           
09 18.08.17 280 (З) 20000 м    8/6 1000 м кучево-дожд., средняя 
[Cb cap|Ac trans]
+23.4 +17 67 +39  1007.3  0.2  682  249           
12 18.08.17 230 (ЮЗ) 20000 м  {гроза, ливн. осадки}  9/4 1000 м кучево-дожд., средняя, верхняя 
[Cb cap|Ac trans|Ci fib]
+20.2 +16.5 79 +35  1009.1  0.6  682  252    +25.7  0.1     
15 18.08.17 210 (ЮЗ) 20000 м    9/4 1000 м кучево-дожд., средняя 
[Cb cap|Ac trans]
+17.1 +15.4 90 +31  1010.8  0.5  683  255           
18 18.08.17 020 (С) 20000 м    8/0 средняя, верхняя 
[Ac lent|Cs]
+16.8 +15.4 91 +30  1009.9  -0.9  682  255           
21 18.08.17 280 (З) 20000 м    9/4 1000 м средняя 
[Sc|Ac trans]
+16 +14.8 93 +28  1009.5  -0.6  681  256           
00 19.08.17 180 (Ю) 20000 м    9/4 1000 м средняя 
[Sc|Ac trans]
+17.4 +15.5 89 +31  1008.8  0.1  681  255  +15.9        влажная 
03 19.08.17 180 (Ю) 20000 м    9/4 1000 м средняя 
[Sc|Ac trans]
+22 +16.7 72 +37  1006  -1  681  250           
06 19.08.17 090 (В) 20000 м    9/4 1000 м средняя, верхняя 
[Cu med, cong|Ac trans|Ci fib]
+25.8 +16.3 56 +40  1002.7  -1.8  679  246           
09 19.08.17 310 (СЗ) 3{11}  20000 м  гроза без осадков  10/6 1000 м кучево-дожд., средняя 
[Cb cap|Ac und]
+20.1 +15.3 74 +32  1003.7  -0.9  679  251           
12 19.08.17 290 (З) 10 км  гроза, ливневой дождь  10/6 1000 м кучево-дожд., средняя 
[Cb cap|Ac und]
+17.6 +15.9 90 +31  1004.3  -0.3  678  253    +26.8     
15 19.08.17 250 (З) 2000 м  гроза, ливневой дождь  10/8 1000 м кучево-дожд., средняя 
[Cb cap|Ac und]
+16.3 +15.3 94 +30  1004.6  0.1  678  254           
18 19.08.17 340 (С) 2000 м  ливневой дождь{гроза}  10/6 1000 м кучево-дожд., средняя 
[Cb cap|Ac und]
+16.2 +15.4 95 +30  1001.3  -3  676  254           
21 19.08.17 090 (В) 4000 м  слаб. дождь{ливн. осадки}  10/6 1000 м средняя 
[Sc|Ac und]
+16.1 +15.2 94 +17  998.6  -2.5             
00 20.08.17 230 (ЮЗ) 4000 м  дымка{ливн. осадки, дождь}  10/6 1000 м средняя 
[Sc|Ac und]
+16.2 +15.3 94 +18  996.5  -1.8    +15.9    48    влажная 
03 20.08.17 120 (ЮВ) 20000 м    9/4 1000 м средняя 
[Sc|Ac trans]
+18.9 +16.1 84 +20  993.6  -1.7             
06 20.08.17 260 (З) 20000 м  в посл. час ливневой дождь  9/5 1000 м кучево-дожд., средняя 
[Cb cap|Ac trans]
+20 +15.9 77 +20  991.5  -1.5             
09 20.08.17 280 (З) 4{10}  20000 м    8/4 1000 м средняя 
[Cu hum|Ac trans]
+18.8 +10 57 +19  993.5  1.3             
12 20.08.17 270 (З) 3{11}  20000 м    4/3 1000 м средняя 
[Sc|Ac trans]
+14.6 +8.3 66 +15  996.8  1.5      +20.6  0.5     
15 20.08.17 250 (З) 20000 м    8/4 1000 м кучево-дожд., средняя 
[Cb cap|Ac trans]
+13.5 +7.3 66 +14  998.9  1.5             
18 20.08.17 260 (З) 20000 м    8/4 1000 м кучево-дожд., средняя 
[Cb cap|Ac trans]
+13.4 +7.6 68 +13  999.1  0.2             
21 20.08.17 250 (З) 20000 м    10/4 1000 м средняя 
[Sc|Ac und]
+13.5 +7.2 66 +14  999.4  0.2             
00 21.08.17 260 (З) 10 км  дым  9/4 1000 м средняя 
[Sc|Ac trans]
+14.2 +7.7 65 +14  1000.7  1.5    +12.6        влажная 
03 21.08.17 280 (З) 6-11{14}  10 км  дым  9/4 1000 м средняя 
[Cu hum|Ac trans]
+17.1 +4.8 44 +17  1001.1  1.2  676  255           
Время (UTC), дата Ветер
(°,м/с) 
Видим.   Явления Облачность Т
(°С)
Тd
(°С)
f(%) Тe
(°С)
Pmin
(гПа)
dP
(гПа)
Po
(мм)
O2
(г/м3)
Тmin Tmax R s Состояние
почвы

Для получения пояснительной информации подведите курсор к названию столбца.

ПОГОДА в Кыре - архив

Всё, что Вы хотите узнать о погоде в Кыре - удобно и подробно!

Выберите нужную дату (начиная с 1 января 2015* года) и нажмите кнопку "Найти".
Будут отображены архивные сводки погоды по пункту Кыра, начиная с указанной даты.


Отображать данные в формате CSV (для использования в таблицах Excel)


Внимание! Наш архив погоды предназначен исключительно для личного некоммерческого использования в познавательных целях. Если Вам необходимы официальные справки о состоянии погоды (для производственных, юридических, коммерческих и т.п. целей), обращайтесь в органы Росгидромета.

*Примечание: данная дата относится к архиву по метеостанциям СССР (Россия, СНГ, Балтия).
Архив по метеостанциям Зарубежной Европы и Азии (кроме Китая) хранится 10 дней, по другим регионам земного шара (Китай, Африка, Америка, Австралия, Океания) - 1 день.

Кыра - район местоположения метеостанции


Название, широта, долгота, высота метеостанции:
Кыра 49.6°ш. 112°д. 908 м над ур. моря [Российская Федерация]

Дополнительная информация

В oтличие oт бoльшинства пoгoдных сайтoв мы публикуем пoдрoбную метеoинфoрмацию в детальнoм прoфессиoнальнoм фoрмате.

Характеристики температуры и влажнoсти вoздуха измеряются на высoте 2 м в тени вдали oт зданий и деревьев.
Скoрoсть ветра измеряется на высoте 10 м (на урoвне рoста челoвека скoрoсть ветра ниже в 1.5-2 раза). Если метеoстанция нахoдится в гoрoде или в лесу, тo скoрoсть ветра занижена на 2-4 м/с пo сравнению с oткрытым местoм. Скoрoсть ветра над акватoриями крупных рек и oзёр, а также на вершинах хoлмoв на 2-5 м/с выше, чем в oбычных услoвиях.
Атмoсфернoе давление в разных тoчках местнoсти мoжет значительнo oтличаться oт давления на метеoстанции, в зависимoсти oт услoвий рельефа (при пoдъёме на 10 м давление пoнижается примернo на 1 мм рт.ст.).